Location: Ottawa
(45.4170°N, 75.7000°W)
Time: 05:44:03
(UTC-04:00)

Iridium 91 - Visible Passes

Search period start: 04 August 2015 00:00
Search period end: 14 August 2015 00:00
Orbit: 776 x 779 km, 86.4° (Epoch: 03 August)

Date Brightness Start Highest point End Pass type
(mag) Time Alt. Az. Time Alt. Az. Time Alt. Az.
04 Aug 8.6 04:32:52 10° NE 04:35:29 14° ENE 04:38:21 10° ESE visible
06 Aug 7.5 05:05:02 10° NNE 05:09:44 34° ENE 05:14:28 10° SE visible
07 Aug 8.3 04:32:11 10° NNE 04:35:53 20° ENE 04:39:43 10° ESE visible
08 Aug 8.7 04:00:26 10° NE 04:01:51 11° ENE 04:03:34 10° E visible
09 Aug 6.7 05:04:57 10° N 05:09:58 47° E 05:15:01 10° SSE visible
10 Aug 7.7 04:31:50 10° NNE 04:36:13 27° ENE 04:40:40 10° SE visible
11 Aug 8.3 03:59:13 10° NNE 04:02:17 16° ENE 04:05:33 10° ESE visible
12 Aug 6.0 05:04:57 10° N 05:10:09 67° E 05:15:21 10° SSE visible
13 Aug 7.1 04:31:39 10° NNE 04:36:29 38° E 04:41:21 10° SSE visible
